Regional Weather Roundup
Issued by NWS

Home | Current Version | Previous Version | Text Only | Print | Product List | Glossary Off
Versions: 1 2 3 4 5 6 7 8 9 10 11 12 13 14 15 16 17 18 19 20 21 22 23 24 25 26 27 28 29 30 31 32 33 34 35 36 37 38 39 40 41 42 43 44 45 46 47 48 49 50

000
ASUS43 KOAX 041010
RWRNE

WEATHER ROUNDUP FOR NEBRASKA
NATIONAL WEATHER SERVICE OMAHA NE
500 AM CDT TUE AUG 04 2015

NOTES: SATELLITE DATA IS BEING USED TO AUGMENT CLOUD COVER ABOVE
       12000 FEET.
       "FAIR" INDICATES FEW OR NO CLOUDS BELOW 12,000 FEET WITH NO
       SIGNIFICANT WEATHER AND/OR OBSTRUCTIONS TO VISIBILITY.

  * THESE STATIONS DO NOT REPORT WEATHER SUCH AS RAIN...SNOW OR FOG.

NEZ001>004-019>022-054>056-041100-
NEBRASKA PANHANDLE

CITY           SKY/WX    TMP DP  RH WIND       PRES   REMARKS
SCOTTSBLUFF    PTCLDY    60  55  83 E6        29.93F
ALLIANCE       PTCLDY    58  53  84 CALM      29.93F
CHADRON        PTCLDY    59  57  93 CALM      29.93R
KIMBALL        PTCLDY    56  50  79 SW3       29.99F
SIDNEY         PTCLDY    54  49  83 SW6       29.98F
$$

NEZ057>060-069>072-079>082-041100-
SOUTHWEST NEBRASKA

CITY           SKY/WX    TMP DP  RH WIND       PRES   REMARKS
NORTH PLATTE   CLOUDY    66  64  93 E6        29.92F
IMPERIAL       FOG       65  64  97 SE3       29.93F VSB 1/4
LEXINGTON      CLOUDY    69  67  94 E7        29.92S FOG
MCCOOK         FOG       68  68 100 CALM      29.90F VSB 1/4
OGALLALA       CLOUDY    68  67  99 CALM      29.94F FOG
$$

NEZ005>010-023>029-035>040-094-041100-
NORTH CENTRAL NEBRASKA

CITY           SKY/WX    TMP DP  RH WIND       PRES   REMARKS
AINSWORTH      CLOUDY    67  59  75 SE13      30.00F
BROKEN BOW     CLOUDY    69  66  90 E10       29.96R
O`NEILL        TSTM      64  63  96 W10G23    30.05R
ORD            CLOUDY    69  62  78 E13       29.96S
THEDFORD       CLOUDY    64  63  96 SE6       29.98R
$$

NEZ041-046>049-061>064-073>077-083>087-041100-
SOUTH CENTRAL NEBRASKA

CITY           SKY/WX    TMP DP  RH WIND       PRES   REMARKS
GRAND ISLAND   PTCLDY    67  63  87 E7        29.94S
AURORA         PTCLDY    67  66  96 E7        29.94F
HASTINGS       CLOUDY    70  68  93 E7        29.94R
HEBRON         CLOUDY    69  67  92 E6        29.93R
HOLDREGE       FOG       67  66  95 SE6       29.92S VSB 1/2
KEARNEY *      CLOUDY    68  66  94 E8        29.93S
YORK           PTCLDY    66  64  94 NE7       29.95S
$$

NEZ011>018-030>034-042>045-041100-
NORTHEAST NEBRASKA

CITY           SKY/WX    TMP DP  RH WIND       PRES   REMARKS
NORFOLK        TSTM      66  64  93 S7        29.99S
ALBION         TSTM      65  60  84 W8        30.01S
BLAIR          CLOUDY    68  61  78 E6        29.96R
COLUMBUS *     MOCLDY    66  59  77 N7        29.98R
FREMONT        CLOUDY    69  64  83 CALM      29.98R
TEKAMAH        CLOUDY    68  66  93 W6        29.97R
WAYNE          CLOUDY    67  63  86 S6        30.00R
$$

NEZ050>053-065>068-078-088>093-041100-
SOUTHEAST NEBRASKA

CITY           SKY/WX    TMP DP  RH WIND       PRES   REMARKS
LINCOLN        PTCLDY    70  65  84 NE8       29.95R
OMAHA EPPLEY   CLOUDY    71  61  70 S8        29.95R
BEATRICE       PTCLDY    69  68  94 E6        29.93S
FALLS CITY     PTCLDY    70  68  93 E6        29.93S
NEBRASKA CITY  MOCLDY    67  65  96 SE6       29.94F
PLATTSMOUTH    CLOUDY    67  63  87 SE3       29.95R
$$

NEZ044-045-051>053-067-041100-
OMAHA AREA

CITY           SKY/WX    TMP DP  RH WIND       PRES   REMARKS
OMAHA EPPLEY   CLOUDY    71  61  70 S8        29.95R
BLAIR          CLOUDY    68  61  78 E6        29.96R
FREMONT        CLOUDY    69  64  83 CALM      29.98R
MILLARD        CLOUDY    70  63  79 CALM      29.95R
OFFUTT AFB     MOCLDY    68  63  84 E5        29.94S
PLATTSMOUTH    CLOUDY    67  63  87 SE3       29.95R
WAHOO          LGT RAIN  67  65  94 NW5       29.99R
$$



USA.gov is the U.S. government's official web portal to all federal, state and local government web resources and services.